TimeEST,TemperatureF,Dew PointF,Humidity,Sea Level PressureIn,VisibilityMPH,Wind Direction,Wind SpeedMPH,Gust SpeedMPH,PrecipitationIn,Events,Conditions,WindDirDegrees,DateUTC
12:58 AM,46.2,41.9,85,29.74,10.0,West,9.2,-,N/A,,Clear,260,2013-02-27 05:58:00
1:58 AM,46.2,40.5,80,29.75,10.0,WSW,9.2,-,N/A,,Clear,240,2013-02-27 06:58:00
2:58 AM,45.1,36.9,73,29.75,10.0,WSW,10.4,-,N/A,,Clear,250,2013-02-27 07:58:00
3:58 AM,44.2,35.8,72,29.75,10.0,WSW,12.7,-,N/A,,Clear,240,2013-02-27 08:58:00
4:58 AM,43.5,35.1,72,29.77,10.0,SW,11.5,-,N/A,,Clear,230,2013-02-27 09:58:00
5:58 AM,43.3,34.0,70,29.79,10.0,WSW,11.5,-,N/A,,Scattered Clouds,240,2013-02-27 10:58:00
6:58 AM,41.9,32.9,70,29.80,10.0,SW,10.4,-,N/A,,Clear,230,2013-02-27 11:58:00
7:58 AM,43.2,33.1,68,29.84,10.0,SW,13.8,21.9,N/A,,Clear,230,2013-02-27 12:58:00
8:58 AM,46.6,32.7,59,29.86,10.0,WSW,16.1,23.0,N/A,,Clear,250,2013-02-27 13:58:00
9:58 AM,48.9,31.8,52,29.86,10.0,West,11.5,-,N/A,,Clear,270,2013-02-27 14:58:00
10:58 AM,51.8,31.6,46,29.86,10.0,West,10.4,-,N/A,,Clear,260,2013-02-27 15:58:00
11:58 AM,54.3,31.5,42,29.85,10.0,West,10.4,19.6,N/A,,Clear,270,2013-02-27 16:58:00
12:58 PM,56.8,33.1,41,29.83,10.0,WSW,9.2,-,N/A,,Clear,240,2013-02-27 17:58:00
1:55 PM,59.0,32.0,36,29.80,10.0,WSW,15.0,18.4,N/A,,Clear,240,2013-02-27 18:55:00
1:58 PM,59.5,31.6,35,29.81,10.0,SW,15.0,18.4,N/A,,Clear,230,2013-02-27 18:58:00
2:55 PM,60.8,32.0,34,29.78,10.0,SW,13.8,18.4,N/A,,Clear,230,2013-02-27 19:55:00
3:55 PM,62.6,32.0,32,29.76,10.0,SW,15.0,19.6,N/A,,Clear,230,2013-02-27 20:55:00
4:55 PM,62.6,32.0,32,29.77,10.0,SSW,11.5,-,N/A,,Partly Cloudy,210,2013-02-27 21:55:00
5:55 PM,59.0,32.0,36,29.77,10.0,WSW,9.2,-,N/A,,Clear,240,2013-02-27 22:55:00
6:55 PM,55.2,33.3,43,29.79,10.0,SW,8.1,-,N/A,,Partly Cloudy,230,2013-02-27 23:55:00
6:58 PM,55.2,33.3,43,29.79,10.0,WSW,8.1,-,N/A,,Clear,240,2013-02-27 23:58:00
7:55 PM,51.8,35.6,54,29.78,10.0,SW,9.2,-,N/A,,Clear,220,2013-02-28 00:55:00